Skip Page Navigation
NASA JPL Caltech
NASA Logo - Jet Propulsion Laboratory + View the NASA Portal
+ Near-Earth Object (NEO) Program
Search JPL
JPL Home Earth Solar System Stars & Galaxies Technology
JPL Solar System Dynamics
BODIES ORBITS EPHEMERIDES TOOLS PHYSICAL DATA DISCOVERY FAQ SITE MAP
JPL Small-Body Database Browser
Search: [ help ]  
8431 Haseda (1997 YQ13)
Classification: Main-belt Asteroid          SPK-ID: 2008431
Ephemeris | Orbit Diagram | Orbital Elements | Physical Parameters | Discovery Circumstances ]

[ show orbit diagram ]
Orbital Elements at Epoch 2457000.5 (2014-Dec-09.0) TDB
Reference: JPL 10 (heliocentric ecliptic J2000)
 Element Value Uncertainty (1-sigma)   Units 
e .04699234110395876 4.9369e-08  
a 2.807187450929064 2.0525e-08 AU
q 2.675271140692252 1.379e-07 AU
i 1.600033410083411 4.8865e-06 deg
node 246.2498536675942 0.00020457 deg
peri 218.4124429701502 0.00021522 deg
M 233.7669899579267 6.5634e-05 deg
tp 2457602.887546545814
(2016-Aug-02.38754655)
0.00031606 JED
period 1717.930331251817
4.70
1.8841e-05
5.158e-08
d
yr
n .2095544816055935 2.2983e-09 deg/d
Q 2.939103761165875 2.149e-08 AU
  Orbit Determination Parameters
   # obs. used (total)      1320  
   data-arc span      14416 days (39.47 yr)  
   first obs. used      1975-03-15  
   last obs. used      2014-09-02  
   planetary ephem.      DE431  
   SB-pert. ephem.      SB431-BIG16  
   condition code      0  
   fit RMS      .50608  
   data source      ORB  
   producer      Otto Matic  
   solution date      2014-Oct-09 14:12:47  

Additional Information
 Earth MOID = 1.69223 AU 
 T_jup = 3.320 
[ show covariance matrix ]

Ephemeris | Orbit Diagram | Orbital Elements | Physical Parameters | Discovery Circumstances ]

Physical Parameter Table
Parameter Symbol Value Units Sigma Reference Notes
absolute magnitude H 12.7 mag n/a MPO266003  

8431 Haseda           Discovered 1997 Dec. 31 by T. Kobayashi at Oizumi.
Haseda Kastumi (b. 1945) is an amateur astronomer in Aichi prefecture. During 2000-2002 he discovered the four novae V463 Sct, V1178 Sco, V2540 Oph and V4743 Sgr. He has also discovered 65 new variables, including some Wolf-Rayet stars.
NOTE: some special characters may not display properly (any characters within {} are an attempt to place the proper accent above a character)
Reference: 20050919/MPCPages.arcLast Updated: 2005-09-26

Alternate Designations
 1997 YQ13 = 1975 EG5 = 1981 NH1 = 1982 VG6 = 1989 ER = 1991 ST1 
Ephemeris | Orbit Diagram | Orbital Elements | Physical Parameters | Discovery Circumstances ]
ABOUT SSD CREDITS/AWARDS PRIVACY/COPYRIGHT GLOSSARY LINKS
FirstGov 2014-Nov-01 07:46 UT
(server date/time)  
NASA Home Page
Site Manager:   Donald K. Yeomans
Webmaster  Alan B. Chamberlin